Point Hope, AK (99766)

7:55 AM AKDT on June 29, 2017 (GMT -0800)
Point Hope | | Change Station

Elev 13 ft 68.35 °N, 166.80 °W | Updated 59 minutes ago

Overcast
Overcast
46 °F
Feels Like 39 °F
N
16
Wind Variable Wind from SSE

Today
High -- | Low -- °F
--% Chance of Precip.
Yesterday
High -- | Low -- °F
Precip. -- in
Pressure 29.81 in
Visibility 10.0 miles
Clouds Overcast 5500 ft
Windchill 39 °F
Dew Point 44 °F
Humidity 93%
Rainfall 0.00 in
Snow Depth Not available.
2:00 PM 2:00 PM
Waxing Crescent, 36% visible
METAR PAPO 291456Z AUTO 16014KT 10SM OVC055 08/07 A2981 RMK AO2 SLP093 T00780067 53014
Pressure 29.81 in
Visibility 10.0 miles
Clouds Overcast 5500 ft
Windchill 39 °F
Dew Point 44 °F
Humidity 93%
Rainfall 0.00 in
Snow Depth Not available.
2:00 PM 2:00 PM
Waxing Crescent, 36% visible
METAR PAPO 291456Z AUTO 16014KT 10SM OVC055 08/07 A2981 RMK AO2 SLP093 T00780067 53014

Get Severe Weather Alerts

Thanks for signing up!

Be on the lookout for a verification email in your inbox.

You'll start receiving the daily forecast at 6 AM.

×

10-Day Weather Forecast

Almanac

Astronomy

Jun. 29, 2017 Rise Set
Actual Time
Civil Twilight
Nautical Twilight
Astronomical Twilight
Moon
Length of Visible Light
Length of Day
Tomorrow will be .
, % of the Moon is Illuminated

Today's Extremes

State Highs State Lows

Community

WunderPhotos

Category 6

Welcome to Category 6. This is the collective home for Weather Underground's featured writeups by Dr. Jeff Masters (right), Bob Henson (left), Chris Burt, and other regular contributors.

Nearby

Air Quality

  Air Quality AQ Index Pollutant
Not available.

Snow Depth

Station Depth Elevation

Earthquake Activity

City Distance Mag. Time & Date
Minimum magnitude displayed is 2.5.

Coastal Water Temperatures

Place Temperature

Stations

Nearby Weather Stations

Station Location Temp. Windchill Dew Point Humidity Wind Precip. Elev Updated Type
                   

Watches & Warnings

There are currently no watches in effect.